View from above orbital plane
|
View from above satellite
|
Ground track
|
The orbit data is extracted from the following two-line orbital elements,
1 22826U 93061D 21023.55721533 .00000003 00000-0 19118-4 0 9995
2 22826 98.9183 37.4834 0010001 85.0574 275.1749 14.30441760425512
Epoch (UTC): | 23 January 2021 13:22:23 |
Eccentricity: | 0.0010001 |
inclination: | 98.9183° |
perigee height: | 783 km |
apogee height: | 797 km |
right ascension of ascending node: | 37.4834° |
argument of perigee: | 85.0574° |
revolutions per day: | 14.30441760 |
mean anomaly at epoch: | 275.1749° |
orbit number at epoch: | 42551 |
The dashed part of the orbit path shows where the satellite is in the earth's shadow,
|
|